Year,Month,Day,Hour,Minute,Value (Times are PST for temperature in C)
2020,03,16,00,00,4.30
2020,03,16,00,01,4.30
2020,03,16,00,02,4.30
2020,03,16,00,03,4.30
2020,03,16,00,04,4.30
2020,03,16,00,05,4.30
2020,03,16,00,06,4.30
2020,03,16,00,07,4.30
2020,03,16,00,08,4.30
2020,03,16,00,09,4.20
2020,03,16,00,10,4.20
2020,03,16,00,11,4.20
2020,03,16,00,12,4.30
2020,03,16,00,13,4.30
2020,03,16,00,14,4.30
2020,03,16,00,15,4.30
2020,03,16,00,16,4.30
2020,03,16,00,17,4.30
2020,03,16,00,18,4.20
2020,03,16,00,19,4.20
2020,03,16,00,20,4.20
2020,03,16,00,21,4.20
2020,03,16,00,22,4.10
2020,03,16,00,23,4.10
2020,03,16,00,24,4.20
2020,03,16,00,25,4.20
2020,03,16,00,26,4.20
2020,03,16,00,27,4.30
2020,03,16,00,28,4.30
2020,03,16,00,29,4.30
2020,03,16,00,30,4.40
2020,03,16,00,31,4.40
2020,03,16,00,32,4.40
2020,03,16,00,33,4.30
2020,03,16,00,34,4.30
2020,03,16,00,35,4.30
2020,03,16,00,36,4.30
2020,03,16,00,37,4.30
2020,03,16,00,38,4.40
2020,03,16,00,39,4.40
2020,03,16,00,40,4.50
2020,03,16,00,41,4.50
2020,03,16,00,42,4.60
2020,03,16,00,43,4.60
2020,03,16,00,44,4.70
2020,03,16,00,45,4.70
2020,03,16,00,46,4.70
2020,03,16,00,47,4.70
2020,03,16,00,48,4.70
2020,03,16,00,49,4.70
2020,03,16,00,50,4.70
2020,03,16,00,51,4.70
2020,03,16,00,52,4.70
2020,03,16,00,53,4.70
2020,03,16,00,54,4.70
2020,03,16,00,55,4.70
2020,03,16,00,56,4.80
2020,03,16,00,57,4.80
2020,03,16,00,58,4.70
2020,03,16,00,59,4.80
2020,03,16,01,00,4.70
2020,03,16,01,01,4.70
2020,03,16,01,02,4.70
2020,03,16,01,03,4.70
2020,03,16,01,04,4.70
2020,03,16,01,05,4.60
2020,03,16,01,06,4.60
2020,03,16,01,07,4.60
2020,03,16,01,08,4.60
2020,03,16,01,09,4.60
2020,03,16,01,10,4.60
2020,03,16,01,11,4.60
2020,03,16,01,12,4.50
2020,03,16,01,13,4.50
2020,03,16,01,14,4.50
2020,03,16,01,15,4.50
2020,03,16,01,16,4.50
2020,03,16,01,17,4.40
2020,03,16,01,18,4.40
2020,03,16,01,19,4.50
2020,03,16,01,20,4.50
2020,03,16,01,21,4.50
2020,03,16,01,22,4.50
2020,03,16,01,23,4.50
2020,03,16,01,24,4.50
2020,03,16,01,25,4.50
2020,03,16,01,26,4.50
2020,03,16,01,27,4.40
2020,03,16,01,28,4.40
2020,03,16,01,29,4.30
2020,03,16,01,30,4.30
2020,03,16,01,31,4.30
2020,03,16,01,32,4.30
2020,03,16,01,33,4.20
2020,03,16,01,34,4.20
2020,03,16,01,35,4.20
2020,03,16,01,36,4.20
2020,03,16,01,37,4.20
2020,03,16,01,38,4.20
2020,03,16,01,39,4.20
2020,03,16,01,40,4.20
2020,03,16,01,41,4.10
2020,03,16,01,42,4.10
2020,03,16,01,43,4.10
2020,03,16,01,44,4.10
2020,03,16,01,45,4.10
2020,03,16,01,46,4.10
2020,03,16,01,47,4.10
2020,03,16,01,48,4.10
2020,03,16,01,49,4.20
2020,03,16,01,50,4.10
2020,03,16,01,51,4.10
2020,03,16,01,52,4.10
2020,03,16,01,53,4.10
2020,03,16,01,54,4.10
2020,03,16,01,55,4.10
2020,03,16,01,56,4.00
2020,03,16,01,57,4.00
2020,03,16,01,58,4.00
2020,03,16,01,59,4.00
2020,03,16,02,00,3.90
2020,03,16,02,01,3.90
2020,03,16,02,02,3.90
2020,03,16,02,03,3.90
2020,03,16,02,04,3.90
2020,03,16,02,05,3.80
2020,03,16,02,06,3.80
2020,03,16,02,07,3.80
2020,03,16,02,08,3.80
2020,03,16,02,09,3.80
2020,03,16,02,10,3.80
2020,03,16,02,11,3.80
2020,03,16,02,12,3.70
2020,03,16,02,13,3.70
2020,03,16,02,14,3.70
2020,03,16,02,15,3.70
2020,03,16,02,16,3.70
2020,03,16,02,17,3.70
2020,03,16,02,18,3.70
2020,03,16,02,19,3.70
2020,03,16,02,20,3.70
2020,03,16,02,21,3.70
2020,03,16,02,22,3.60
2020,03,16,02,23,3.60
2020,03,16,02,24,3.60
2020,03,16,02,25,3.60
2020,03,16,02,26,3.60
2020,03,16,02,27,3.60
2020,03,16,02,28,3.60
2020,03,16,02,29,3.60
2020,03,16,02,30,3.60
2020,03,16,02,31,3.60
2020,03,16,02,32,3.60
2020,03,16,02,33,3.60
2020,03,16,02,34,3.60
2020,03,16,02,35,3.60
2020,03,16,02,36,3.60
2020,03,16,02,37,3.60
2020,03,16,02,38,3.60
2020,03,16,02,39,3.60
2020,03,16,02,40,3.60
2020,03,16,02,41,3.60
2020,03,16,02,42,3.60
2020,03,16,02,43,3.70
2020,03,16,02,44,3.70
2020,03,16,02,45,3.70
2020,03,16,02,46,3.70
2020,03,16,02,47,3.70
2020,03,16,02,48,3.70
2020,03,16,02,49,3.70
2020,03,16,02,50,3.70
2020,03,16,02,51,3.70
2020,03,16,02,52,3.70
2020,03,16,02,53,3.70
2020,03,16,02,54,3.70
2020,03,16,02,55,3.60
2020,03,16,02,56,3.60
2020,03,16,02,57,3.60
2020,03,16,02,58,3.60
2020,03,16,02,59,3.60
2020,03,16,03,00,3.60
2020,03,16,03,01,3.60
2020,03,16,03,02,3.60
2020,03,16,03,03,3.60
2020,03,16,03,04,3.50
2020,03,16,03,05,3.50
2020,03,16,03,06,3.50
2020,03,16,03,07,3.50
2020,03,16,03,08,3.50
2020,03,16,03,09,3.50
2020,03,16,03,10,3.50
2020,03,16,03,11,3.50
2020,03,16,03,12,3.40
2020,03,16,03,13,3.40
2020,03,16,03,14,3.40
2020,03,16,03,15,3.40
2020,03,16,03,16,3.40
2020,03,16,03,17,3.40
2020,03,16,03,18,3.40
2020,03,16,03,19,3.40
2020,03,16,03,20,3.40
2020,03,16,03,21,3.40
2020,03,16,03,22,3.30
2020,03,16,03,23,3.40
2020,03,16,03,24,3.40
2020,03,16,03,25,3.40
2020,03,16,03,26,3.30
2020,03,16,03,27,3.30
2020,03,16,03,28,3.30
2020,03,16,03,29,3.30
2020,03,16,03,30,3.30
2020,03,16,03,31,3.30
2020,03,16,03,32,3.30
2020,03,16,03,33,3.30
2020,03,16,03,34,3.30
2020,03,16,03,35,3.30
2020,03,16,03,36,3.30
2020,03,16,03,37,3.30
2020,03,16,03,38,3.30
2020,03,16,03,39,3.30
2020,03,16,03,40,3.30
2020,03,16,03,41,3.30
2020,03,16,03,42,3.20
2020,03,16,03,43,3.30
2020,03,16,03,44,3.20
2020,03,16,03,45,3.20
2020,03,16,03,46,3.20
2020,03,16,03,47,3.20
2020,03,16,03,48,3.20
2020,03,16,03,49,3.20
2020,03,16,03,50,3.20
2020,03,16,03,51,3.20
2020,03,16,03,52,3.20
2020,03,16,03,53,3.20
2020,03,16,03,54,3.10
2020,03,16,03,55,3.10
2020,03,16,03,56,3.10
2020,03,16,03,57,3.10
2020,03,16,03,58,3.10
2020,03,16,03,59,3.10
2020,03,16,04,00,3.10
2020,03,16,04,01,3.10
2020,03,16,04,02,3.10
2020,03,16,04,03,3.00
2020,03,16,04,04,3.00
2020,03,16,04,05,3.00
2020,03,16,04,06,2.90
2020,03,16,04,07,2.90
2020,03,16,04,08,2.90
2020,03,16,04,09,2.90
2020,03,16,04,10,2.90
2020,03,16,04,11,2.90
2020,03,16,04,12,2.90
2020,03,16,04,13,2.90
2020,03,16,04,14,2.90
2020,03,16,04,15,2.90
2020,03,16,04,16,2.90
2020,03,16,04,17,2.90
2020,03,16,04,18,2.90
2020,03,16,04,19,2.90
2020,03,16,04,20,2.80
2020,03,16,04,21,2.80
2020,03,16,04,22,2.80
2020,03,16,04,23,2.80
2020,03,16,04,24,2.80
2020,03,16,04,25,2.80
2020,03,16,04,26,2.80
2020,03,16,04,27,2.80
2020,03,16,04,28,2.80
2020,03,16,04,29,2.80
2020,03,16,04,30,2.80
2020,03,16,04,31,2.80
2020,03,16,04,32,2.80
2020,03,16,04,33,2.80
2020,03,16,04,34,2.80
2020,03,16,04,35,2.80
2020,03,16,04,36,2.80
2020,03,16,04,37,2.70
2020,03,16,04,38,2.70
2020,03,16,04,39,2.70
2020,03,16,04,40,2.70
2020,03,16,04,41,2.70
2020,03,16,04,42,2.70
2020,03,16,04,43,2.80
2020,03,16,04,44,2.80
2020,03,16,04,45,2.80
2020,03,16,04,46,2.80
2020,03,16,04,47,2.80
2020,03,16,04,48,2.80
2020,03,16,04,49,2.80
2020,03,16,04,50,2.80
2020,03,16,04,51,2.80
2020,03,16,04,52,2.80
2020,03,16,04,53,2.90
2020,03,16,04,54,2.90
2020,03,16,04,55,2.90
2020,03,16,04,56,2.90
2020,03,16,04,57,2.90
2020,03,16,04,58,2.90
2020,03,16,04,59,2.90
2020,03,16,05,00,3.00
2020,03,16,05,01,3.00
2020,03,16,05,02,3.00
2020,03,16,05,03,3.00
2020,03,16,05,04,3.00
2020,03,16,05,05,3.00
2020,03,16,05,06,3.00
2020,03,16,05,07,3.10
2020,03,16,05,08,3.10
2020,03,16,05,09,3.10
2020,03,16,05,10,3.10
2020,03,16,05,11,3.10
2020,03,16,05,12,3.10
2020,03,16,05,13,3.10
2020,03,16,05,14,3.10
2020,03,16,05,15,3.10
2020,03,16,05,16,3.10
2020,03,16,05,17,3.10
2020,03,16,05,18,3.10
2020,03,16,05,19,3.10
2020,03,16,05,20,3.10
2020,03,16,05,21,3.10
2020,03,16,05,22,3.10
2020,03,16,05,23,3.10
2020,03,16,05,24,3.10
2020,03,16,05,25,3.10
2020,03,16,05,26,3.10
2020,03,16,05,27,3.10
2020,03,16,05,28,3.10
2020,03,16,05,29,3.10
2020,03,16,05,30,3.10
2020,03,16,05,31,3.10
2020,03,16,05,32,3.10
2020,03,16,05,33,3.10
2020,03,16,05,34,3.10
2020,03,16,05,35,3.20
2020,03,16,05,36,3.20
2020,03,16,05,37,3.20
2020,03,16,05,38,3.20
2020,03,16,05,39,3.20
2020,03,16,05,40,3.20
2020,03,16,05,41,3.20
2020,03,16,05,42,3.30
2020,03,16,05,43,3.30
2020,03,16,05,44,3.30
2020,03,16,05,45,3.30
2020,03,16,05,46,3.30
2020,03,16,05,47,3.30
2020,03,16,05,48,3.20
2020,03,16,05,49,3.20
2020,03,16,05,50,3.20
2020,03,16,05,51,3.20
2020,03,16,05,52,3.20
2020,03,16,05,53,3.20
2020,03,16,05,54,3.20
2020,03,16,05,55,3.20
2020,03,16,05,56,3.10
2020,03,16,05,57,3.10
2020,03,16,05,58,3.10
2020,03,16,05,59,3.10
2020,03,16,06,00,3.10
2020,03,16,06,01,3.10
2020,03,16,06,02,3.10
2020,03,16,06,03,3.10
2020,03,16,06,04,3.10
2020,03,16,06,05,3.10
2020,03,16,06,06,3.10
2020,03,16,06,07,3.10
2020,03,16,06,08,3.10
2020,03,16,06,09,3.10
2020,03,16,06,10,3.10
2020,03,16,06,11,3.10
2020,03,16,06,12,3.10
2020,03,16,06,13,3.10
2020,03,16,06,14,3.00
2020,03,16,06,15,3.00
2020,03,16,06,16,3.00
2020,03,16,06,17,3.00
2020,03,16,06,18,3.00
2020,03,16,06,19,2.90
2020,03,16,06,20,2.90
2020,03,16,06,21,2.90
2020,03,16,06,22,2.90
2020,03,16,06,23,2.90
2020,03,16,06,24,2.90
2020,03,16,06,25,2.90
2020,03,16,06,26,2.80
2020,03,16,06,27,2.80
2020,03,16,06,28,2.80
2020,03,16,06,29,2.80
2020,03,16,06,30,2.80
2020,03,16,06,31,2.80
2020,03,16,06,32,2.80
2020,03,16,06,33,2.80
2020,03,16,06,34,2.80
2020,03,16,06,35,2.80
2020,03,16,06,36,2.70
2020,03,16,06,37,2.70
2020,03,16,06,38,2.70
2020,03,16,06,39,2.70
2020,03,16,06,40,2.70
2020,03,16,06,41,2.70
2020,03,16,06,42,2.70
2020,03,16,06,43,2.70
2020,03,16,06,44,2.70
2020,03,16,06,45,2.70
2020,03,16,06,46,2.70
2020,03,16,06,47,2.70
2020,03,16,06,48,2.70
2020,03,16,06,49,2.70
2020,03,16,06,50,2.70
2020,03,16,06,51,2.70
2020,03,16,06,52,2.70
2020,03,16,06,53,2.70
2020,03,16,06,54,2.70
2020,03,16,06,55,2.60
2020,03,16,06,56,2.60
2020,03,16,06,57,2.60
2020,03,16,06,58,2.60
2020,03,16,06,59,2.60
2020,03,16,07,00,2.60
2020,03,16,07,01,2.60
2020,03,16,07,02,2.60
2020,03,16,07,03,2.60
2020,03,16,07,04,2.50
2020,03,16,07,05,2.50
2020,03,16,07,06,2.50
2020,03,16,07,07,2.50
2020,03,16,07,08,2.50
2020,03,16,07,09,2.50
2020,03,16,07,10,2.40
2020,03,16,07,11,2.40
2020,03,16,07,12,2.40
2020,03,16,07,13,2.40
2020,03,16,07,14,2.40
2020,03,16,07,15,2.40
2020,03,16,07,16,2.40
2020,03,16,07,17,2.40
2020,03,16,07,18,2.40
2020,03,16,07,19,2.40
2020,03,16,07,20,2.40
2020,03,16,07,21,2.40
2020,03,16,07,22,2.40
2020,03,16,07,23,2.40
2020,03,16,07,24,2.40
2020,03,16,07,25,2.40
2020,03,16,07,26,2.40
2020,03,16,07,27,2.40
2020,03,16,07,28,2.40
2020,03,16,07,29,2.40
2020,03,16,07,30,2.40
2020,03,16,07,31,2.40
2020,03,16,07,32,2.30
2020,03,16,07,33,2.30
2020,03,16,07,34,2.40
2020,03,16,07,35,2.30
2020,03,16,07,36,2.40
2020,03,16,07,37,2.40
2020,03,16,07,38,2.40
2020,03,16,07,39,2.40
2020,03,16,07,40,2.40
2020,03,16,07,41,2.40
2020,03,16,07,42,2.40
2020,03,16,07,43,2.40
2020,03,16,07,44,2.40
2020,03,16,07,45,2.40
2020,03,16,07,46,2.40
2020,03,16,07,47,2.40
2020,03,16,07,48,2.40
2020,03,16,07,49,2.40
2020,03,16,07,50,2.40
2020,03,16,07,51,2.40
2020,03,16,07,52,2.40
2020,03,16,07,53,2.40
2020,03,16,07,54,2.40
2020,03,16,07,55,2.40
2020,03,16,07,56,2.40
2020,03,16,07,57,2.40
2020,03,16,07,58,2.40
2020,03,16,07,59,2.40
2020,03,16,08,00,2.40
2020,03,16,08,01,2.40
2020,03,16,08,02,2.40
2020,03,16,08,03,2.40
2020,03,16,08,04,2.40
2020,03,16,08,05,2.50
2020,03,16,08,06,2.40
2020,03,16,08,07,2.40
2020,03,16,08,08,2.40
2020,03,16,08,09,2.50
2020,03,16,08,10,2.40
2020,03,16,08,11,2.50
2020,03,16,08,12,2.50
2020,03,16,08,13,2.50
2020,03,16,08,14,2.50
2020,03,16,08,15,2.50
2020,03,16,08,16,2.50
2020,03,16,08,17,2.50
2020,03,16,08,18,2.50
2020,03,16,08,19,2.50
2020,03,16,08,20,2.50
2020,03,16,08,21,2.50
2020,03,16,08,22,2.50
2020,03,16,08,23,2.50
2020,03,16,08,24,2.50
2020,03,16,08,25,2.50
2020,03,16,08,26,2.50
2020,03,16,08,27,2.60
2020,03,16,08,28,2.60
2020,03,16,08,29,2.60
2020,03,16,08,30,2.60
2020,03,16,08,31,2.60
2020,03,16,08,32,2.60
2020,03,16,08,33,2.60
2020,03,16,08,34,2.60
2020,03,16,08,35,2.60
2020,03,16,08,36,2.50
2020,03,16,08,37,2.50
2020,03,16,08,38,2.50
2020,03,16,08,39,2.50
2020,03,16,08,40,2.50
2020,03,16,08,41,2.40
2020,03,16,08,42,2.40
2020,03,16,08,43,2.40
2020,03,16,08,44,2.40
2020,03,16,08,45,2.40
2020,03,16,08,46,2.40
2020,03,16,08,47,2.40
2020,03,16,08,48,2.40
2020,03,16,08,49,2.40
2020,03,16,08,50,2.40
2020,03,16,08,51,2.40
2020,03,16,08,52,2.40
2020,03,16,08,53,2.40
2020,03,16,08,54,2.30
2020,03,16,08,55,2.30
2020,03,16,08,56,2.30
2020,03,16,08,57,2.30
2020,03,16,08,58,2.30
2020,03,16,08,59,2.30
2020,03,16,09,00,2.30
2020,03,16,09,01,2.30
2020,03,16,09,02,2.20
2020,03,16,09,03,2.20
2020,03,16,09,04,2.20
2020,03,16,09,05,2.20
2020,03,16,09,06,2.20
2020,03,16,09,07,2.20
2020,03,16,09,08,2.20
2020,03,16,09,09,2.20
2020,03,16,09,10,2.20
2020,03,16,09,11,2.20
2020,03,16,09,12,2.20
2020,03,16,09,13,2.20
2020,03,16,09,14,2.20
2020,03,16,09,15,2.20
2020,03,16,09,16,2.20
2020,03,16,09,17,2.30
2020,03,16,09,18,2.30
2020,03,16,09,19,2.30
2020,03,16,09,20,2.30
2020,03,16,09,21,2.30
2020,03,16,09,22,2.30
2020,03,16,09,23,2.30
2020,03,16,09,24,2.40
2020,03,16,09,25,2.40
2020,03,16,09,26,2.40
2020,03,16,09,27,2.40
2020,03,16,09,28,2.40
2020,03,16,09,29,2.40
2020,03,16,09,30,2.50
2020,03,16,09,31,2.50
2020,03,16,09,32,2.50
2020,03,16,09,33,2.60
2020,03,16,09,34,2.60
2020,03,16,09,35,2.60
2020,03,16,09,36,2.60
2020,03,16,09,37,2.70
2020,03,16,09,38,2.70
2020,03,16,09,39,2.70
2020,03,16,09,40,2.70
2020,03,16,09,41,2.80
2020,03,16,09,42,2.80
2020,03,16,09,43,2.80
2020,03,16,09,44,2.80
2020,03,16,09,45,2.90
2020,03,16,09,46,2.90
2020,03,16,09,47,2.90
2020,03,16,09,48,3.00
2020,03,16,09,49,3.00
2020,03,16,09,50,3.10
2020,03,16,09,51,3.10
2020,03,16,09,52,3.10
2020,03,16,09,53,3.10
2020,03,16,09,54,3.20
2020,03,16,09,55,3.20
2020,03,16,09,56,3.20
2020,03,16,09,57,3.20
2020,03,16,09,58,3.20
2020,03,16,09,59,3.30
2020,03,16,10,00,3.30
2020,03,16,10,01,3.30
2020,03,16,10,02,3.30
2020,03,16,10,03,3.30
2020,03,16,10,04,3.30
2020,03,16,10,05,3.40
2020,03,16,10,06,3.40
2020,03,16,10,07,3.40
2020,03,16,10,08,3.40
2020,03,16,10,09,3.40
2020,03,16,10,10,3.40
2020,03,16,10,11,3.50
2020,03,16,10,12,3.50
2020,03,16,10,13,3.60
2020,03,16,10,14,3.60
2020,03,16,10,15,3.60
2020,03,16,10,16,3.70
2020,03,16,10,17,3.70
2020,03,16,10,18,3.70
2020,03,16,10,19,3.70
2020,03,16,10,20,3.80
2020,03,16,10,21,3.80
2020,03,16,10,22,3.80
2020,03,16,10,23,3.90
2020,03,16,10,24,3.90
2020,03,16,10,25,3.90
2020,03,16,10,26,4.00
2020,03,16,10,27,4.00
2020,03,16,10,28,4.10
2020,03,16,10,29,4.10
2020,03,16,10,30,4.10
2020,03,16,10,31,4.20
2020,03,16,10,32,4.20
2020,03,16,10,33,4.30
2020,03,16,10,34,4.30
2020,03,16,10,35,4.30
2020,03,16,10,36,4.30
2020,03,16,10,37,4.30
2020,03,16,10,38,4.30
2020,03,16,10,39,4.30
2020,03,16,10,40,4.40
2020,03,16,10,41,4.40
2020,03,16,10,42,4.40
2020,03,16,10,43,4.40
2020,03,16,10,44,4.50
2020,03,16,10,45,4.50
2020,03,16,10,46,4.50
2020,03,16,10,47,4.50
2020,03,16,10,48,4.50
2020,03,16,10,49,4.50
2020,03,16,10,50,4.60
2020,03,16,10,51,4.60
2020,03,16,10,52,4.60
2020,03,16,10,53,4.60
2020,03,16,10,54,4.60
2020,03,16,10,55,4.60
2020,03,16,10,56,4.60
2020,03,16,10,57,4.60
2020,03,16,10,58,4.60
2020,03,16,10,59,4.70
2020,03,16,11,00,4.70
2020,03,16,11,01,4.70
2020,03,16,11,02,4.70
2020,03,16,11,03,4.70
2020,03,16,11,04,4.70
2020,03,16,11,05,4.70
2020,03,16,11,06,4.80
2020,03,16,11,07,4.80
2020,03,16,11,08,4.80
2020,03,16,11,09,4.80
2020,03,16,11,10,4.80
2020,03,16,11,11,4.80
2020,03,16,11,12,4.80
2020,03,16,11,13,4.80
2020,03,16,11,14,4.90
2020,03,16,11,15,4.90
2020,03,16,11,16,5.00
2020,03,16,11,17,5.10
2020,03,16,11,18,5.10
2020,03,16,11,19,5.10
2020,03,16,11,20,5.10
2020,03,16,11,21,5.20
2020,03,16,11,22,5.20
2020,03,16,11,23,5.20
2020,03,16,11,24,5.30
2020,03,16,11,25,5.30
2020,03,16,11,26,5.40
2020,03,16,11,27,5.40
2020,03,16,11,28,5.50
2020,03,16,11,29,5.50
2020,03,16,11,30,5.60
2020,03,16,11,31,5.70
2020,03,16,11,32,5.80
2020,03,16,11,33,5.80
2020,03,16,11,34,5.90
2020,03,16,11,35,6.00
2020,03,16,11,36,6.10
2020,03,16,11,37,6.10
2020,03,16,11,38,6.20
2020,03,16,11,39,6.30
2020,03,16,11,40,6.30
2020,03,16,11,41,6.30
2020,03,16,11,42,6.40
2020,03,16,11,43,6.40
2020,03,16,11,44,6.40
2020,03,16,11,45,6.50
2020,03,16,11,46,6.50
2020,03,16,11,47,6.60
2020,03,16,11,48,6.60
2020,03,16,11,49,6.60
2020,03,16,11,50,6.60
2020,03,16,11,51,6.60
2020,03,16,11,52,6.60
2020,03,16,11,53,6.70
2020,03,16,11,54,6.70
2020,03,16,11,55,6.70
2020,03,16,11,56,6.70
2020,03,16,11,57,6.80
2020,03,16,11,58,6.80
2020,03,16,11,59,6.80
2020,03,16,12,00,6.90
2020,03,16,12,01,6.90
2020,03,16,12,02,6.90
2020,03,16,12,03,7.00
2020,03,16,12,04,7.00
2020,03,16,12,05,7.00
2020,03,16,12,06,7.10
2020,03,16,12,07,7.10
2020,03,16,12,08,7.10
2020,03,16,12,09,7.10
2020,03,16,12,10,7.20
2020,03,16,12,11,7.20
2020,03,16,12,12,7.20
2020,03,16,12,13,7.30
2020,03,16,12,14,7.30
2020,03,16,12,15,7.30
2020,03,16,12,16,7.40
2020,03,16,12,17,7.40
2020,03,16,12,18,7.40
2020,03,16,12,19,7.40
2020,03,16,12,20,7.50
2020,03,16,12,21,7.50
2020,03,16,12,22,7.50
2020,03,16,12,23,7.50
2020,03,16,12,24,7.60
2020,03,16,12,25,7.60
2020,03,16,12,26,7.60
2020,03,16,12,27,7.60
2020,03,16,12,28,7.60
2020,03,16,12,29,7.60
2020,03,16,12,30,7.70
2020,03,16,12,31,7.70
2020,03,16,12,32,7.70
2020,03,16,12,33,7.70
2020,03,16,12,34,7.80
2020,03,16,12,35,7.70
2020,03,16,12,36,7.70
2020,03,16,12,37,7.70
2020,03,16,12,38,7.70
2020,03,16,12,39,7.70
2020,03,16,12,40,7.70
2020,03,16,12,41,7.70
2020,03,16,12,42,7.70
2020,03,16,12,43,7.70
2020,03,16,12,44,7.80
2020,03,16,12,45,7.80
2020,03,16,12,46,7.80
2020,03,16,12,47,7.80
2020,03,16,12,48,7.80
2020,03,16,12,49,7.80
2020,03,16,12,50,7.90
2020,03,16,12,51,7.90
2020,03,16,12,52,8.00
2020,03,16,12,53,8.00
2020,03,16,12,54,7.90
2020,03,16,12,55,8.00
2020,03,16,12,56,8.00
2020,03,16,12,57,8.00
2020,03,16,12,58,8.10
2020,03,16,12,59,8.10
2020,03,16,13,00,8.10
2020,03,16,13,01,8.10
2020,03,16,13,02,8.10
2020,03,16,13,03,8.20
2020,03,16,13,04,8.20
2020,03,16,13,05,8.20
2020,03,16,13,06,8.20
2020,03,16,13,07,8.30
2020,03,16,13,08,8.30
2020,03,16,13,09,8.40
2020,03,16,13,10,8.40
2020,03,16,13,11,8.40
2020,03,16,13,12,8.50
2020,03,16,13,13,8.50
2020,03,16,13,14,8.60
2020,03,16,13,15,8.60
2020,03,16,13,16,8.70
2020,03,16,13,17,8.70
2020,03,16,13,18,8.80
2020,03,16,13,19,8.80
2020,03,16,13,20,8.80
2020,03,16,13,21,8.80
2020,03,16,13,22,8.80
2020,03,16,13,23,8.80
2020,03,16,13,24,8.80
2020,03,16,13,25,8.80
2020,03,16,13,26,8.70
2020,03,16,13,27,8.70
2020,03,16,13,28,8.70
2020,03,16,13,29,8.70
2020,03,16,13,30,8.70
2020,03,16,13,31,8.80
2020,03,16,13,32,8.80
2020,03,16,13,33,8.80
2020,03,16,13,34,8.70
2020,03,16,13,35,8.70
2020,03,16,13,36,8.70
2020,03,16,13,37,8.70
2020,03,16,13,38,8.70
2020,03,16,13,39,8.70
2020,03,16,13,40,8.70
2020,03,16,13,41,8.70
2020,03,16,13,42,8.70
2020,03,16,13,43,8.70
2020,03,16,13,44,8.80
2020,03,16,13,45,8.80
2020,03,16,13,46,8.90
2020,03,16,13,47,8.90
2020,03,16,13,48,8.90
2020,03,16,13,49,8.90
2020,03,16,13,50,8.90
2020,03,16,13,51,8.90
2020,03,16,13,52,8.80
2020,03,16,13,53,8.80
2020,03,16,13,54,8.80
2020,03,16,13,55,8.80
2020,03,16,13,56,8.80
2020,03,16,13,57,8.80
2020,03,16,13,58,8.70
2020,03,16,13,59,8.70
2020,03,16,14,00,8.80
2020,03,16,14,01,8.80
2020,03,16,14,02,8.90
2020,03,16,14,03,8.90
2020,03,16,14,04,8.90
2020,03,16,14,05,8.90
2020,03,16,14,06,8.90
2020,03,16,14,07,8.90
2020,03,16,14,08,8.90
2020,03,16,14,09,8.90
2020,03,16,14,10,8.90
2020,03,16,14,11,8.90
2020,03,16,14,12,8.90
2020,03,16,14,13,8.90
2020,03,16,14,14,8.90
2020,03,16,14,15,8.90
2020,03,16,14,16,8.90
2020,03,16,14,17,9.00
2020,03,16,14,18,9.00
2020,03,16,14,19,9.10
2020,03,16,14,20,9.10
2020,03,16,14,21,9.10
2020,03,16,14,22,9.10
2020,03,16,14,23,9.20
2020,03,16,14,24,9.30
2020,03,16,14,25,9.30
2020,03,16,14,26,9.40
2020,03,16,14,27,9.50
2020,03,16,14,28,9.60
2020,03,16,14,29,9.60
2020,03,16,14,30,9.50
2020,03,16,14,31,9.50
2020,03,16,14,32,9.50
2020,03,16,14,33,9.50
2020,03,16,14,34,9.40
2020,03,16,14,35,9.40
2020,03,16,14,36,9.30
2020,03,16,14,37,9.30
2020,03,16,14,38,9.20
2020,03,16,14,39,9.20
2020,03,16,14,40,9.10
2020,03,16,14,41,9.10
2020,03,16,14,42,9.10
2020,03,16,14,43,9.10
2020,03,16,14,44,9.20
2020,03,16,14,45,9.30
2020,03,16,14,46,9.30
2020,03,16,14,47,9.50
2020,03,16,14,48,9.60
2020,03,16,14,49,9.60
2020,03,16,14,50,9.60
2020,03,16,14,51,9.70
2020,03,16,14,52,9.70
2020,03,16,14,53,9.80
2020,03,16,14,54,9.80
2020,03,16,14,55,9.90
2020,03,16,14,56,10.00
2020,03,16,14,57,10.10
2020,03,16,14,58,10.30
2020,03,16,14,59,10.40
2020,03,16,15,00,10.40
2020,03,16,15,01,10.50
2020,03,16,15,02,10.60
2020,03,16,15,03,10.60
2020,03,16,15,04,10.60
2020,03,16,15,05,10.60
2020,03,16,15,06,10.60
2020,03,16,15,07,10.60
2020,03,16,15,08,10.60
2020,03,16,15,09,10.50
2020,03,16,15,10,10.50
2020,03,16,15,11,10.40
2020,03,16,15,12,10.40
2020,03,16,15,13,10.40
2020,03,16,15,14,10.40
2020,03,16,15,15,10.50
2020,03,16,15,16,10.60
2020,03,16,15,17,10.60
2020,03,16,15,18,10.80
2020,03,16,15,19,10.90
2020,03,16,15,20,10.90
2020,03,16,15,21,11.00
2020,03,16,15,22,11.10
2020,03,16,15,23,11.20
2020,03,16,15,24,11.20
2020,03,16,15,25,11.30
2020,03,16,15,26,11.30
2020,03,16,15,27,11.30
2020,03,16,15,28,11.40
2020,03,16,15,29,11.40
2020,03,16,15,30,11.50
2020,03,16,15,31,11.50
2020,03,16,15,32,11.60
2020,03,16,15,33,11.70
2020,03,16,15,34,11.80
2020,03,16,15,35,11.90
2020,03,16,15,36,12.00
2020,03,16,15,37,12.10
2020,03,16,15,38,12.20
2020,03,16,15,39,12.20
2020,03,16,15,40,12.20
2020,03,16,15,41,12.30
2020,03,16,15,42,12.30
2020,03,16,15,43,12.30
2020,03,16,15,44,12.30
2020,03,16,15,45,12.30
2020,03,16,15,46,12.30
2020,03,16,15,47,12.30
2020,03,16,15,48,12.30
2020,03,16,15,49,12.30
2020,03,16,15,50,12.30
2020,03,16,15,51,12.20
2020,03,16,15,52,12.20
2020,03,16,15,53,12.10
2020,03,16,15,54,12.10
2020,03,16,15,55,12.10
2020,03,16,15,56,12.00
2020,03,16,15,57,11.80
2020,03,16,15,58,11.60
2020,03,16,15,59,11.40
2020,03,16,16,00,11.20
2020,03,16,16,01,11.10
2020,03,16,16,02,11.00
2020,03,16,16,03,10.90
2020,03,16,16,04,10.80
2020,03,16,16,05,10.80
2020,03,16,16,06,10.70
2020,03,16,16,07,10.70
2020,03,16,16,08,10.70
2020,03,16,16,09,10.70
2020,03,16,16,10,10.70
2020,03,16,16,11,10.70
2020,03,16,16,12,10.70
2020,03,16,16,13,10.70
2020,03,16,16,14,10.70
2020,03,16,16,15,10.70
2020,03,16,16,16,10.70
2020,03,16,16,17,10.70
2020,03,16,16,18,10.80
2020,03,16,16,19,10.80
2020,03,16,16,20,10.80
2020,03,16,16,21,10.90
2020,03,16,16,22,10.90
2020,03,16,16,23,11.00
2020,03,16,16,24,11.00
2020,03,16,16,25,11.00
2020,03,16,16,26,11.00
2020,03,16,16,27,11.00
2020,03,16,16,28,10.90
2020,03,16,16,29,10.90
2020,03,16,16,30,10.90
2020,03,16,16,31,10.80
2020,03,16,16,32,10.80
2020,03,16,16,33,10.80
2020,03,16,16,34,10.80
2020,03,16,16,35,10.80
2020,03,16,16,36,10.70
2020,03,16,16,37,10.70
2020,03,16,16,38,10.70
2020,03,16,16,39,10.70
2020,03,16,16,40,10.70
2020,03,16,16,41,10.70
2020,03,16,16,42,10.80
2020,03,16,16,43,10.80
2020,03,16,16,44,10.80
2020,03,16,16,45,10.90
2020,03,16,16,46,10.90
2020,03,16,16,47,10.80
2020,03,16,16,48,10.80
2020,03,16,16,49,10.80
2020,03,16,16,50,10.80
2020,03,16,16,51,10.80
2020,03,16,16,52,10.80
2020,03,16,16,53,10.80
2020,03,16,16,54,10.70
2020,03,16,16,55,10.70
2020,03,16,16,56,10.70
2020,03,16,16,57,10.70
2020,03,16,16,58,10.70
2020,03,16,16,59,10.70
2020,03,16,17,00,10.70
2020,03,16,17,01,10.80
2020,03,16,17,02,10.80
2020,03,16,17,03,10.80
2020,03,16,17,04,10.80
2020,03,16,17,05,10.80
2020,03,16,17,06,10.80
2020,03,16,17,07,10.80
2020,03,16,17,08,10.70
2020,03,16,17,09,10.70
2020,03,16,17,10,10.60
2020,03,16,17,11,10.60
2020,03,16,17,12,10.60
2020,03,16,17,13,10.50
2020,03,16,17,14,10.50
2020,03,16,17,15,10.50
2020,03,16,17,16,10.50
2020,03,16,17,17,10.50
2020,03,16,17,18,10.60
2020,03,16,17,19,10.60
2020,03,16,17,20,10.70
2020,03,16,17,21,10.70
2020,03,16,17,22,10.80
2020,03,16,17,23,10.90
2020,03,16,17,24,11.00
2020,03,16,17,25,11.10
2020,03,16,17,26,11.20
2020,03,16,17,27,11.30
2020,03,16,17,28,11.30
2020,03,16,17,29,11.30
2020,03,16,17,30,11.40
2020,03,16,17,31,11.40
2020,03,16,17,32,11.50
2020,03,16,17,33,11.50
2020,03,16,17,34,11.50
2020,03,16,17,35,11.50
2020,03,16,17,36,11.50
2020,03,16,17,37,11.40
2020,03,16,17,38,11.40
2020,03,16,17,39,11.30
2020,03,16,17,40,11.20
2020,03,16,17,41,11.00
2020,03,16,17,42,10.90
2020,03,16,17,43,10.80
2020,03,16,17,44,10.60
2020,03,16,17,45,10.50
2020,03,16,17,46,10.40
2020,03,16,17,47,10.30
2020,03,16,17,48,10.30
2020,03,16,17,49,10.20
2020,03,16,17,50,10.10
2020,03,16,17,51,10.10
2020,03,16,17,52,10.10
2020,03,16,17,53,10.10
2020,03,16,17,54,10.20
2020,03,16,17,55,10.20
2020,03,16,17,56,10.20
2020,03,16,17,57,10.30
2020,03,16,17,58,10.30